RH
7 6 7 7 7 7 6 6 6 6 7 8 12 9 26 10 10 10 9 9 8 8 8 7 7 8 8 9 12 17 25 23 23 20 19 21 21 23 22 23 23 23 19 22 31 24 24 34 34
7 7 8 8 7 7 8 7 7 7 7 7 8 8 8 14 11 14 16 12 10 10 8 8 8 8 10 13 19 24 25 23 22 23 22 21 16 18 27 27 24 20 20 42 48 48 44 46 54
8 8 9 9 8 8 8 8 9 9 7 7 7 7 9 8 9 12 18 24 24 22 16 14 17 18 21 24 32 30 26 24 20 20 18 19 20 30 31 27 22 26 30 45 72 70 73 77 78
9 9 10 12 10 8 8 10 11 12 10 8 6 7 8 13 12 12 18 17 17 20 27 24 33 29 35 30 19 22 42 34 25 34 27 27 42 28 26 33 39 55 68 71 79 93 90 85 87
10 11 14 16 13 12 10 11 12 13 13 10 7 7 7 8 12 11 16 18 17 22 35 30 37 34 35 32 49 56 56 50 54 49 50 54 52 57 52 60 76 77 90 89 95 86 86 95 83
11 13 19 22 16 14 13 12 13 13 14 14 11 9 8 8 14 16 30 22 29 36 39 54 50 41 40 63 78 73 75 80 75 70 68 72 65 73 91 81 79 89 90 84 80 75 65 76 70
13 16 23 25 18 16 17 14 14 14 14 13 14 11 11 14 13 14 13 16 21 26 25 28 45 54 71 68 74 94 89 89 84 83 75 73 88 80 78 70 65 77 84 78 71 48 55 72 69
15 21 31 35 27 25 21 19 19 17 14 14 16 16 19 23 20 22 12 10 10 13 30 62 99 86 90 92 100 95 100 100 81 97 89 98 100 85 80 67 63 63 77 59 51 53 44 38 48
20 26 42 48 35 34 32 40 25 18 16 17 24 18 26 52 24 15 11 12 14 25 52 62 55 100 100 100 100 100 91 100 100 100 87 70 68 78 99 94 87 82 72 93 78 67 52 97 100
25 37 49 56 64 51 57 47 33 27 22 27 33 20 14 18 14 18 29 25 48 97 99 100 99 100 100 100 100 100 100 100 100 100 98 97 100 98 100 90 100 100 96 97 90 79 100 97 87
38 56 64 70 81 76 86 77 64 60 46 53 23 14 25 35 31 32 34 56 100 100 100 100 100 100 100 100 100 100 100 100 100 100 99 100 100 100 99 100 97 91 100 100 100 100 99 100 100
64 76 71 97 100 100 100 94 96 50 47 42 41 29 38 41 65 95 83 100 100 100 100 100 100 100 100 100 100 100 100 100 100 100 100 100 100 100 100 100 100 97 100 100 100 100 98 100 99
80 88 89 98 100 100 100 97 59 67 71 49 45 38 61 100 100 100 87 100 100 100 100 100 100 100 100 100 100 100 100 100 100 98 100 100 100 100 99 100 100 100 92 86 99 92 89 99 87
84 96 94 100 99 97 100 99 100 97 77 75 91 100 100 100 100 100 100 100 100 100 100 100 100 100 100 100 100 100 100 100 100 100 100 100 100 100 100 100 100 100 100 92 98 100 100 89 85
92 100 100 100 100 100 100 95 92 100 100 100 100 100 100 100 100 100 100 100 100 100 100 100 100 100 100 100 100 100 100 100 100 100 100 90 96 100 100 100 92 100 100 90 100 96 83 77 69
96 100 90 100 100 100 93 98 100 100 100 100 100 100 100 100 100 100 100 100 100 100 100 100 100 100 100 100 100 100 100 100 100 100 100 100 98 73 71 100 100 99 83 86 76 79 73 56 42
98 85 87 100 93 93 82 100 100 100 100 100 100 100 100 100 100 98 100 100 100 100 100 100 100 100 100 100 100 100 100 100 100 100 100 100 100 100 100 100 86 80 82 93 88 67 47 36 31
95 86 82 96 85 96 99 100 100 100 100 100 100 100 100 100 100 100 97 100 99 100 100 100 100 100 100 100 100 100 100 100 100 100 100 100 100 99 94 86 83 85 74 58 40 34 32 32 34
100 100 100 100 88 84 94 100 100 100 100 100 100 100 100 100 100 100 100 100 86 82 96 93 96 95 96 95 99 77 67 66 69 93 92 85 79 79 70 75 65 55 42 35 32 33 38 42 40
100 100 98 97 99 76 79 94 100 100 100 100 100 100 100 100 100 100 96 97 98 72 65 60 46 50 58 59 58 57 68 90 100 91 81 72 64 58 54 52 42 36 32 37 42 44 39 35 33
88 99 99 89 97 74 80 92 99 100 98 99 100 93 97 98 100 100 100 100 100 100 99 100 91 88 82 95 94 92 85 79 75 62 54 58 63 54 42 36 33 36 45 40 40 37 33 34 40
84 88 100 100 100 99 68 75 100 99 90 89 81 91 95 85 88 92 82 90 84 81 100 100 100 100 100 92 84 72 64 58 46 45 53 58 43 35 33 36 38 42 40 41 39 37 45 46 48
74 93 99 100 100 100 98 94 84 68 65 64 62 75 74 68 62 62 71 58 77 100 86 90 92 100 87 76 74 68 72 82 70 58 55 46 36 37 37 38 39 40 37 37 43 46 47 48 53
73 81 95 99 94 93 99 100 96 73 72 75 79 86 94 90 73 66 59 62 64 62 57 60 81 100 84 84 78 97 93 82 76 75 60 42 42 40 37 39 41 40 41 44 44 46 54 54 52
75 91 96 95 100 100 100 98 84 91 82 76 85 78 67 68 77 72 75 81 70 53 50 64 96 100 88 98 100 95 84 86 75 65 51 43 39 38 44 47 44 42 46 53 59 63 56 51 51
58 71 77 81 84 83 94 98 91 100 94 79 72 69 69 74 71 63 57 59 65 70 78 80 76 100 100 100 100 100 95 73 51 45 44 43 43 47 44 41 51 56 59 60 60 59 53 54 60
28 64 74 75 80 80 84 78 68 84 87 90 90 86 82 75 61 59 66 72 64 28 41 53 85 100 100 99 91 72 58 55 49 47 44 41 43 41 46 55 58 59 59 61 58 51 55 63 63
22 38 78 85 76 76 82 85 70 73 95 100 100 100 100 99 88 54 27 25 36 54 65 60 87 79 66 54 50 53 54 51 49 44 43 43 44 51 59 60 58 56 59 55 48 54 59 62 63
19 30 55 69 93 91 87 95 84 82 89 90 98 99 68 62 53 50 58 59 48 34 38 49 45 50 56 56 55 53 52 54 46 39 38 46 56 53 55 56 56 58 58 51 56 56 59 67 71
18 16 30 45 84 91 94 100 100 93 90 100 90 38 37 42 56 69 57 36 43 50 50 45 62 61 58 59 59 56 52 44 41 43 50 53 47 52 58 61 60 62 59 55 58 63 68 71 66
Wind_Speed
49 48 51 56 56 62 64 65 76 84 90 94 94 89 86 88 87 89 86 87 80 81 78 76 70 69 67 67 69 69 71 70 73 73 75 75 76 73 74 73 74 75 77 79 79 79 77 76 77
48 46 49 52 56 61 66 68 66 72 79 89 93 92 90 88 87 84 86 86 84 82 78 77 72 68 69 68 64 64 68 69 70 73 72 76 74 73 74 75 75 75 74 77 78 77 78 76 75
45 45 46 49 55 61 62 62 61 64 69 76 83 83 86 87 88 85 87 80 81 78 78 77 70 69 67 66 68 68 67 70 71 72 72 75 73 71 71 72 72 72 70 72 72 74 72 70 67
43 38 42 45 50 55 57 61 60 59 61 68 71 78 79 78 82 85 84 86 82 78 73 70 64 66 65 70 71 67 61 63 65 65 72 69 66 64 67 68 68 68 68 70 70 70 68 69 65
37 34 34 36 43 49 53 56 57 55 54 59 59 65 69 72 79 83 82 81 78 71 63 60 64 65 66 62 56 58 57 60 61 63 62 60 60 60 61 66 65 64 63 66 65 64 63 62 59
33 29 28 28 32 41 47 51 52 50 50 53 54 57 59 69 73 75 73 73 67 61 55 54 53 54 54 48 46 48 49 52 51 54 54 54 52 53 55 60 62 60 61 63 64 62 59 58 58
29 25 24 22 26 32 37 43 45 46 43 46 50 50 55 57 63 68 67 62 56 50 47 49 44 44 46 44 51 41 42 44 51 48 50 50 49 51 54 54 56 57 60 64 63 60 59 54 59
28 22 19 20 22 24 28 35 39 42 41 46 48 52 48 52 54 54 56 54 46 46 44 42 45 44 39 38 36 41 44 46 48 47 49 49 51 54 53 56 50 57 60 66 64 58 58 61 55
24 18 18 18 19 20 25 29 33 35 41 46 48 51 48 45 44 42 41 37 38 40 44 44 51 37 29 24 36 46 49 42 46 51 55 60 60 57 52 51 48 55 60 59 67 63 62 50 61
15 14 17 16 15 17 23 27 30 33 38 41 43 46 45 38 37 33 33 33 38 45 46 38 33 33 25 31 35 44 47 49 53 52 53 58 54 51 49 52 50 62 67 70 64 67 66 68 70
5 12 14 13 12 18 19 24 26 28 32 34 32 30 31 31 33 27 29 38 46 43 44 41 28 28 38 43 48 51 47 49 50 50 47 40 43 49 56 60 64 65 61 62 64 70 75 79 88
5 9 10 14 10 15 13 14 20 22 27 31 30 28 27 29 28 29 37 44 51 45 36 37 38 41 51 45 52 53 58 48 45 50 48 55 57 61 55 60 64 70 69 70 72 76 82 84 84
6 9 9 14 16 15 17 21 20 23 28 31 27 27 23 20 23 27 36 51 48 52 52 50 52 63 57 57 57 56 54 53 59 59 55 52 54 63 72 72 70 72 76 75 79 87 91 91 90
9 10 8 11 13 20 16 16 21 27 31 28 26 26 28 26 28 32 36 54 51 55 55 57 61 58 63 67 62 58 52 57 57 64 64 68 71 65 67 71 73 74 77 84 89 91 86 88 83
12 15 15 9 11 16 17 23 26 29 29 28 36 31 32 21 32 39 36 44 52 50 50 54 51 59 57 65 65 71 69 68 68 70 69 75 72 74 74 73 78 80 85 85 83 82 82 80 79
5 14 14 15 18 20 20 26 24 28 26 40 37 37 37 29 30 36 38 37 44 52 49 46 55 59 59 57 54 63 66 63 68 63 69 72 74 78 80 79 82 81 82 79 79 77 78 78 77
5 13 11 11 11 19 23 26 24 25 32 36 37 41 43 37 34 39 39 42 45 47 47 55 52 57 58 60 57 59 60 65 69 70 71 72 74 81 84 84 79 77 77 73 73 75 77 75 76
10 7 8 11 7 16 22 27 22 25 31 33 39 41 41 40 38 42 46 44 48 50 55 61 58 63 61 61 62 61 61 66 68 70 70 79 82 79 78 77 70 68 69 72 73 73 73 76 79
9 12 12 15 14 21 26 32 32 29 30 28 36 43 44 44 43 41 44 39 48 52 56 57 59 62 60 62 60 65 68 69 72 75 76 76 73 73 67 65 65 67 68 70 71 73 75 75 78
13 14 16 16 19 14 29 32 37 31 27 32 26 35 44 46 44 41 39 42 43 48 47 52 54 56 55 58 61 67 72 78 81 79 78 75 68 66 63 62 63 64 65 68 69 69 73 76 77
15 16 15 16 20 17 23 31 33 33 35 28 32 35 40 34 43 46 49 49 47 50 55 58 58 60 65 66 63 59 65 70 72 68 62 56 57 57 57 58 60 63 67 71 74 77 79 76 74
11 14 18 20 21 25 21 19 31 34 29 33 31 31 33 37 34 36 38 42 42 44 47 51 48 45 48 51 56 58 58 56 55 54 54 52 54 56 57 61 64 68 71 74 76 76 76 76 79
11 11 17 20 23 26 29 26 25 25 31 34 32 33 34 36 39 40 37 36 32 34 35 41 45 49 54 51 55 55 52 51 52 50 50 54 56 58 61 65 68 71 75 76 75 74 74 78 83
14 14 16 21 24 26 25 34 31 27 29 30 31 31 33 36 37 36 38 37 37 37 37 39 29 39 47 50 49 45 47 48 49 50 53 57 59 63 65 68 70 73 76 74 74 74 79 83 86
16 17 20 21 23 25 28 29 30 25 25 28 32 34 36 38 39 38 37 38 40 41 40 37 37 44 44 41 42 45 44 46 50 53 56 59 63 65 66 68 72 74 71 74 76 80 83 84 86
17 16 20 23 24 25 27 28 27 27 28 32 33 32 30 33 36 38 38 37 39 37 39 41 36 37 40 38 40 44 45 48 53 56 58 62 64 64 67 71 72 73 75 78 81 85 86 87 89
21 14 15 18 21 24 25 28 26 26 28 30 30 30 33 35 35 37 38 37 40 37 35 36 29 34 38 38 43 45 47 51 55 59 61 64 64 67 70 72 73 76 79 82 84 86 88 91 96
20 19 16 19 22 22 25 28 29 26 29 31 33 36 37 37 38 39 38 36 35 34 35 32 34 37 36 40 42 45 51 55 56 60 62 64 65 69 72 72 74 79 83 83 86 88 91 96 98
18 23 22 17 22 26 26 30 32 32 32 33 36 38 38 38 37 36 33 31 32 33 28 28 31 34 39 42 48 50 52 55 60 62 63 65 68 72 72 74 79 84 86 86 89 93 96 99 100
20 23 25 26 28 28 30 37 35 36 35 36 38 39 39 37 33 34 30 29 25 25 27 30 34 39 42 43 46 48 54 58 61 64 66 69 72 73 76 80 84 87 91 91 94 98 99 99 104
Wind_Direction
280 266 259 253 252 247 242 236 237 237 236 237 239 236 242 245 244 246 250 254 252 255 259 262 262 263 265 268 269 271 271 273 273 272 273 272 272 274 275 276 276 277 278 278 278 279 281 280 279
284 269 261 252 250 246 241 236 236 236 235 235 236 237 238 241 244 247 247 250 254 256 258 261 262 266 267 269 272 270 270 269 269 269 271 272 275 274 275 276 277 275 277 278 279 280 281 282 283
286 274 260 248 246 242 242 238 236 236 234 237 239 238 241 241 242 246 248 249 251 253 256 259 265 269 270 269 269 269 268 268 270 272 274 274 274 273 274 275 278 277 276 277 278 278 281 282 283
288 274 265 250 241 241 235 235 234 233 236 236 238 238 239 241 243 243 246 246 248 252 256 259 263 264 265 266 272 272 266 268 270 269 269 272 270 274 273 272 273 275 278 281 279 281 282 283 284
290 278 271 261 249 240 233 229 233 235 233 236 235 238 240 241 242 243 246 250 251 254 256 259 257 258 261 265 268 268 265 267 266 267 268 267 269 270 272 273 276 278 277 277 281 283 283 284 287
297 280 277 270 255 241 234 229 230 234 231 236 236 239 241 242 243 244 246 249 249 251 252 257 258 258 259 256 259 262 265 263 269 267 268 268 270 273 273 275 277 278 277 279 279 284 288 285 284
296 283 281 276 256 240 230 229 230 230 233 235 240 239 242 244 248 249 251 253 252 251 252 252 255 249 247 249 255 261 271 273 270 268 270 271 272 273 275 276 278 277 278 276 282 294 288 284 281
297 281 279 267 245 226 218 217 220 222 221 223 227 231 233 240 243 247 252 254 249 246 238 225 221 237 256 257 269 273 277 276 273 266 268 272 276 276 273 281 282 283 285 282 291 289 287 292 295
299 285 275 254 232 209 202 204 212 211 210 216 221 224 224 231 240 247 254 251 236 225 216 220 225 251 245 250 270 280 277 272 273 269 268 273 279 286 286 287 282 286 293 295 296 292 297 305 297
300 285 274 239 222 200 200 201 203 209 208 211 220 224 231 239 244 241 234 223 205 202 202 198 207 225 242 246 262 256 261 274 278 284 286 282 279 285 283 287 288 292 296 297 301 303 298 294 290
296 289 271 210 194 183 198 205 203 207 209 211 220 224 227 229 229 225 226 198 192 194 191 195 196 217 237 241 244 245 255 264 273 277 282 276 278 280 286 288 290 296 303 299 288 294 292 293 294
275 259 208 202 196 186 204 203 197 203 202 208 213 212 212 217 216 218 206 197 195 191 177 198 199 215 222 231 236 238 247 255 261 264 259 273 286 287 292 287 284 290 292 289 291 290 294 296 295
236 188 178 159 159 166 176 175 181 193 196 203 208 212 218 177 175 189 201 193 190 195 192 195 202 206 213 223 229 240 245 261 268 264 272 277 282 286 287 286 284 284 289 289 290 288 287 295 296
194 177 169 138 152 167 155 165 192 194 197 198 200 165 170 179 189 192 201 194 194 195 197 200 206 211 214 225 233 239 254 261 266 272 276 278 284 286 286 289 286 285 288 288 288 291 294 296 302
186 186 182 189 199 203 189 189 192 191 182 179 160 165 170 191 203 196 198 204 203 204 209 211 216 223 228 229 235 243 250 256 263 267 273 277 283 280 280 282 284 283 288 295 292 296 299 302 302
224 196 183 187 202 207 207 186 191 183 177 164 166 183 172 194 212 210 202 210 216 212 214 221 223 230 230 233 248 249 254 258 265 270 274 278 282 286 284 281 280 286 292 295 297 301 301 300 301
263 218 184 206 225 210 200 186 195 190 178 185 186 191 186 192 200 212 218 215 219 221 230 227 229 229 236 244 253 256 258 260 266 272 274 281 285 280 279 283 292 294 296 298 298 299 299 300 301
247 264 221 235 235 199 200 191 201 203 195 204 199 198 199 199 196 201 216 224 227 227 231 231 233 232 238 243 251 256 262 264 273 276 279 277 276 283 287 287 295 295 296 298 300 301 301 300 300
248 249 239 256 262 209 196 199 204 203 211 211 209 208 208 212 212 212 212 221 231 231 234 239 242 246 253 258 262 264 266 268 267 271 276 280 287 288 291 291 293 297 299 300 301 301 301 299 297
242 234 237 242 257 234 209 203 208 212 216 214 221 216 223 220 219 229 231 229 230 227 237 243 247 252 256 262 264 264 261 263 266 277 283 288 288 288 291 295 297 299 300 302 300 298 298 299 300
262 242 242 240 232 241 216 219 211 219 228 226 221 226 227 232 238 239 241 242 246 251 255 258 261 262 260 264 268 275 276 279 278 282 284 286 289 292 294 295 297 299 300 300 298 300 301 302 304
292 252 242 240 239 237 243 231 228 225 233 234 243 247 248 250 254 245 255 253 255 258 261 262 262 268 272 274 280 286 283 283 283 285 286 290 292 293 295 297 298 299 299 299 301 302 303 304 305
270 256 244 241 235 239 241 234 246 239 236 243 248 251 254 255 258 260 263 259 264 270 271 270 273 277 277 283 286 288 284 283 287 287 288 292 294 295 295 295 297 298 300 301 302 303 303 302 303
261 257 243 239 241 247 242 233 244 248 248 242 246 251 260 265 267 269 264 262 269 269 273 276 280 274 282 286 283 278 280 283 286 289 293 296 295 294 295 297 298 300 302 303 304 305 305 305 304
275 252 244 242 238 226 227 237 242 252 253 248 249 251 260 263 262 265 270 272 273 272 272 273 275 278 277 275 273 275 280 285 290 292 292 293 294 296 298 300 300 302 303 305 306 306 306 305 305
284 262 252 243 234 228 230 238 246 245 252 261 260 262 261 267 269 266 266 267 268 268 269 270 261 264 271 268 267 275 282 285 288 289 292 293 293 296 299 302 303 303 304 304 305 306 306 306 306
276 269 255 253 240 239 239 243 243 240 252 260 262 267 275 274 271 270 270 267 268 264 262 259 253 254 262 266 272 278 282 287 289 292 292 293 296 299 304 305 305 305 304 305 306 307 307 308 309
271 270 247 245 248 246 247 251 249 248 254 256 263 267 270 268 266 270 270 266 263 264 263 257 260 264 270 277 282 285 286 287 288 290 292 295 300 304 305 304 304 304 305 307 309 309 309 309 308
263 261 252 245 247 249 250 252 256 257 256 258 260 266 269 268 272 269 260 261 264 263 266 268 272 280 281 283 284 286 286 286 287 291 294 298 300 301 303 303 305 307 308 310 310 310 309 309 307
269 264 244 242 244 245 244 249 254 256 258 260 264 265 265 266 262 261 262 265 260 265 272 279 283 283 283 283 282 289 290 290 292 296 298 298 300 303 304 307 309 310 310 311 311 311 311 309 310